Location: Diebersbach
(48.5163°N, 8.0558°E)
Time: 08:10:02
(UTC+00:00)

Cosmos 2221 - Pass Details

Date: 20 June 2021
Orbit: 591 x 616 km, 82.5° (Epoch: 26 July)

Event Time Altitude Azimuth Distance (km) Brightness Sun altitude
Rises 00:19:19 0° 353° (N) 2,865 7.4 -17.2°
Reaches altitude 10° 00:21:35 10° 358° (N) 1,953 6.3 -17.1°
Maximum altitude 00:25:50 57° 77° (ENE) 706 2.9 -16.9°
Enters shadow 00:28:21 23° 149° (SSE) 1,281 3.8 -16.8°
